Home   Weather   Alpena   Past weeks

Flag for USA Past Weather in Alpena, Michigan, USA — Yesterday and Last 2 Weeks

Now
35 °F

Overcast.


Feels Like: 32 °F
Forecast: 30 / 37 °F
Wind: 3 mph from Southwest

Location: Alpena County Regional Airport

Current Time: Jan 19, 2017 at 1:56:38 am

Latest Report: Jan 19, 2017 at 1:02 am


Visibility: 10 mi

Pressure: 29.94 "Hg

Humidity: 85%

Dew Point: 31 °F

Location of AlpenaLocation

Past Weather in Alpena — Graph

°F

Alpena Temperature Yesterday

Maximum temperature yesterday: 42 °F (at 3:54 pm)
Minimum temperature yesterday: 33 °F (at 12:05 am)
Average temperature yesterday: 35 °F

High & Low Weather Summary for the Past Weeks

 TemperatureHumidityPressure
High43 °F (Jan 10, 8:54 pm)97% (Jan 17, 4:54 pm)30.84 "Hg (Jan 17, 4:54 pm)
Low-5 °F (Jan 13, 10:54 pm)43% (Jan 16, 3:54 pm)29.05 "Hg (Jan 10, 8:16 pm)
Average22 °F76%30.05 "Hg
* Reported Jan 3 11:30 pm — Jan 18 11:54 pm, Alpena, Weather by CustomWeather, © 2017

Note: Actual official high and low records may vary slightly from our data, if they occured in-between our weather recording intervals... More about our weather records

Advertising

Alpena Weather History for the Previous 24 Hours

Scroll right to see more
 ConditionsComfort  
Time TempWeatherWind HumidityBarometerVisibility
11:54 pm
Wed, Jan 18
35 °FOvercast.5 mph85%29.98 "Hg10 mi
10:54 pm35 °FOvercast.No wind85%29.98 "Hg10 mi
10:08 pm34 °FPassing clouds.3 mph88%29.94 "Hg10 mi
9:54 pm35 °FPassing clouds.3 mph85%29.96 "Hg10 mi
8:54 pm36 °FClear.7 mph82%29.94 "Hg10 mi
7:54 pm37 °FClear.8 mph79%29.92 "Hg10 mi
6:54 pm38 °FClear.8 mph79%29.91 "Hg10 mi
5:54 pm39 °FClear.10 mph79%29.89 "Hg10 mi
4:54 pm41 °FSunny.7 mph74%29.90 "Hg10 mi
3:54 pm42 °FSunny.10 mph68%29.90 "Hg10 mi
2:54 pm41 °FSunny.10 mph74%29.93 "Hg10 mi
2:04 pm40 °FScattered clouds.10 mph77%29.93 "Hg10 mi
1:54 pm39 °FPartly sunny.13 mph79%29.96 "Hg10 mi
12:54 pm36 °FLow clouds.12 mph85%29.98 "Hg10 mi
11:54 am35 °FLow clouds.10 mph88%29.98 "Hg10 mi
11:34 am34 °FLow clouds.9 mph92%29.96 "Hg10 mi
10:54 am34 °FLow clouds.9 mph92%30.00 "Hg10 mi
9:54 am33 °FLow clouds.7 mph92%30.01 "Hg10 mi
9:20 am33 °FLow clouds.6 mph92%29.99 "Hg10 mi
8:54 am33 °FLow clouds.No wind92%30.01 "Hg10 mi
8:13 am33 °FLow clouds.3 mph92%29.98 "Hg10 mi
7:54 am33 °FFog.5 mph96%29.99 "Hg4 mi
7:31 am33 °FFog.No wind96%29.95 "Hg5 mi
7:01 am33 °FFog.No wind96%29.95 "Hg1 mi
6:54 am33 °FFog.No wind96%29.97 "Hg0 mi
6:07 am33 °FFog.No wind96%29.93 "Hg0 mi
5:54 am33 °FFog.No wind96%29.95 "Hg1 mi
5:27 am33 °FFog.No wind92%29.93 "Hg3 mi
5:07 am33 °FFog.No wind96%29.93 "Hg1 mi
4:54 am33 °FFog.3 mph96%29.96 "Hg1 mi
3:54 am33 °FFog.3 mph96%29.95 "Hg1 mi
2:54 am33 °FFog.5 mph96%29.93 "Hg1 mi
2:01 am33 °FFog.6 mph96%29.90 "Hg1 mi
1:19 am33 °FFog.7 mph96%29.89 "Hg1 mi
Weather by CustomWeather, © 2017

See weather overviewHow to use our weather pages